sat.trackr.live / text

‹ back to catalog

GEESAT-5 06

NORAD 65555 · 2025-201F

PAYLOAD ACTIVE UNKNOWN

§ Identity

Operator
Country
PRC
Launch date
2025-09-08
Launch site
YSLA
Launch vehicle
Mass (kg)
RCS (m²)

External: N2YO · Heavens-Above · Gunter

§ Orbital elements

Epoch: 2026-09-20T11:56:39.044832Z

Period
97.00 min
Inclination
49.9924°
Eccentricity
0.0013539
Mean motion
14.84464821 rev/d
Perigee alt
605.8 km
Apogee alt
624.7 km
Semi-major
6,993.4 km
B*
1.2468e-4
RAAN
317.0980°
Arg perigee
327.5929°
Mean anomaly
32.4177°
Rev number
5,594

§ Raw data

GEESAT-5 061 65555U 25201F   26263.49767413  .00000832  00000+0  12468-3 0  99922 65555  49.9924 317.0980 0013539 327.5929  32.4177 14.84464821 55940

JSON: /api/v1/satellites/65555 · /tle

For live sub-satellite position, see the globe view (requires WebGL).

§ Visibility from observer

Set your observer location to see the next 7 days of passes ≥ 10°. The values pass through the URL so the page stays shareable.

No JS? Fill the form by hand. The geolocation button needs JavaScript.